^^
Garrymore Weather Station Historical Data
 
Daily Summary for April 01, 2020 Units:  Metric    English   Both
Daily Weekly Monthly Yearly Custom
  Current: High: Low: Average:
Temperature: 5 °C 6 °C 5 °C 5.7 °C
Dew Point: 1 °C 1 °C -1 °C -0.2 °C
Humidity: 72% 72% 60% 67%
Wind Speed: 2km/h 10km/h 2km/h 4.8km/h
Wind Gust: 8km/h 13km/h - -
WindN - - SW
Pressure: 1034.71 hPa 1036 hPa 1034.71 hPa -
Precipitation: 0 mm      
Historical Graphs
 
 
Tabular Data for April 01, 2020
Time Temperature Dew Point Pressure Wind Wind Speed Wind Gust Humidity Rainfall Rate (Hourly) solar
00:00 6 °C -1 °C 1036 hPa N 2 km/h 3 km/h 60% 0 mm 0 W/m2
00:05 6 °C -1 °C 1035.9 hPa N 5 km/h 10 km/h 60% 0 mm 0 W/m2
00:10 6 °C -1 °C 1035.9 hPa NNW 3 km/h 10 km/h 61% 0 mm 0 W/m2
00:15 6 °C -1 °C 1035.9 hPa N 5 km/h 10 km/h 61% 0 mm 0 W/m2
00:20 6 °C -1 °C 1035.69 hPa N 5 km/h 10 km/h 62% 0 mm 0 W/m2
00:25 6 °C -1 °C 1035.79 hPa N 5 km/h 10 km/h 63% 0 mm 0 W/m2
00:30 6 °C -1 °C 1035.9 hPa N 5 km/h 10 km/h 63% 0 mm 0 W/m2
00:35 6 °C 0 °C 1035.69 hPa N 3 km/h 8 km/h 64% 0 mm 0 W/m2
00:40 6 °C -1 °C 1035.63 hPa N 5 km/h 10 km/h 64% 0 mm 0 W/m2
00:45 6 °C 0 °C 1035.69 hPa N 10 km/h 11 km/h 65% 0 mm 0 W/m2
00:50 6 °C 0 °C 1035.59 hPa N 8 km/h 11 km/h 66% 0 mm 0 W/m2
00:55 6 °C 0 °C 1035.59 hPa N 8 km/h 11 km/h 67% 0 mm 0 W/m2
01:00 6 °C 0 °C 1035.42 hPa N 10 km/h 13 km/h 68% 0 mm 0 W/m2
01:05 6 °C 0 °C 1035.59 hPa N 8 km/h 11 km/h 68% 0 mm 0 W/m2
01:10 6 °C 0 °C 1035.39 hPa N 5 km/h 13 km/h 67% 0 mm 0 W/m2
01:15 6 °C -1 °C 1035.39 hPa N 8 km/h 13 km/h 63% 0 mm 0 W/m2
01:20 6 °C 0 °C 1035.32 hPa N 5 km/h 11 km/h 65% 0 mm 0 W/m2
01:25 6 °C 0 °C 1035.29 hPa N 5 km/h 10 km/h 67% 0 mm 0 W/m2
01:30 6 °C 0 °C 1035.29 hPa N 3 km/h 10 km/h 68% 0 mm 0 W/m2
01:35 6 °C 0 °C 1035.02 hPa N 3 km/h 6 km/h 69% 0 mm 0 W/m2
01:40 6 °C 0 °C 1035.08 hPa N 5 km/h 10 km/h 69% 0 mm 0 W/m2
01:45 5 °C 0 °C 1035.19 hPa N 5 km/h 8 km/h 70% 0 mm 0 W/m2
01:50 5 °C 0 °C 1035.12 hPa N 5 km/h 10 km/h 70% 0 mm 0 W/m2
01:55 5 °C 0 °C 1035.08 hPa NNE 3 km/h 10 km/h 71% 0 mm 0 W/m2
02:00 5 °C 0 °C 1035.02 hPa N 3 km/h 6 km/h 71% 0 mm 0 W/m2
02:05 5 °C 0 °C 1034.91 hPa N 2 km/h 5 km/h 71% 0 mm 0 W/m2
02:10 5 °C 0 °C 1034.91 hPa N 2 km/h 5 km/h 71% 0 mm 0 W/m2
02:15 5 °C 0 °C 1034.81 hPa N 3 km/h 10 km/h 71% 0 mm 0 W/m2
02:20 5 °C 1 °C 1034.88 hPa N 2 km/h 6 km/h 72% 0 mm 0 W/m2
02:25 5 °C 1 °C 1034.71 hPa N 2 km/h 8 km/h 72% 0 mm 0 W/m2
Garrymore Weather Station, Geashill, Tullamore, Offaly, Ireland
Compliments of Weather Underground - 2 mb